Regional Weather Roundup
Issued by NWS Upton, NY

Current Version | Previous Version | Graphics & Text | Print | Product List | Glossary Off
Versions: 1 2 3 4 5 6 7 8 9 10 11 12 13 14 15 16 17 18 19 20 21 22 23 24 25 26 27 28 29 30 31 32 33 34 35 36 37 38 39 40 41 42 43 44 45 46 47 48 49 50

000
ASUS41 KOKX 031904
RWROKX

REGIONAL WEATHER ROUNDUP
NATIONAL WEATHER SERVICE NEW YORK NY
300 PM EDT THU SEP 03 2015

NOTE: "FAIR" INDICATES FEW OR NO CLOUDS BELOW 12,000 FEET WITH NO
SIGNIFICANT WEATHER AND/OR OBSTRUCTIONS TO VISIBILITY.

NYZ071-072-176-178-NJZ106-104-032000-
NEW YORK CITY METRO AREA


CITY           SKY/WX    TMP DP  RH WIND       PRES   REMARKS
CENTRAL PARK   SUNNY     92  61  35 VRB6      29.87F HX  92
LAGUARDIA APRT PTSUNNY   90  64  42 CALM      29.83F HX  91
KENNEDY INTL   MOSUNNY   89  65  44 SW6       29.85S HX  91
NEWARK/LIBERTY PTSUNNY   93  60  33 E7        29.83F HX  93
BRNX BOT. GARD   N/A     90  63  40 SW3       29.84S HX  90
TETERBORO      SUNNY     92  57  30 VRB7      29.82F HX  90
$$

NYZ177-179-078>081-032000-
LONG ISLAND NEW YORK

CITY           SKY/WX    TMP DP  RH WIND       PRES   REMARKS
FARMINGDALE    SUNNY     90  67  46 E9        29.84F HX  93
ISLIP          MOSUNNY   87  69  54 S9        29.82F HX  91
SHIRLEY        SUNNY     87  70  56 SE8       29.84F HX  92
WESTHAMPTON    SUNNY     84  71  65 S9        29.86S
MONTAUK POINT    N/A     83  73  72 S6        29.85F
$$

NYZ052-065-067-032000-
HUDSON VALLEY

CITY           SKY/WX    TMP DP  RH WIND       PRES   REMARKS
WHITE PLAINS   SUNNY     90  58  33 NW7       29.85F
NEWBURGH       MOSUNNY   88  70  55 VRB6      29.87F HX  92
MONTGOMERY     SUNNY     91  68  46 VRB7      29.85F HX  95
POUGHKEEPSIE   SUNNY     91  65  41 N9        29.84F HX  93
ALBANY         PTSUNNY   89  68  49 VRB5      29.86S HX  93
$$

NJZ001-105-106-008-010-013-015-019>022-104-032000-
NEW JERSEY

CITY           SKY/WX    TMP DP  RH WIND       PRES   REMARKS
NEWARK/LIBERTY PTSUNNY   93  60  33 E7        29.83F HX  93
TETERBORO      SUNNY     92  57  30 VRB7      29.82F HX  90
CALDWELL       SUNNY     92  60  34 NW8       29.84F HX  91
MORRISTOWN     MOSUNNY   91  57  31 E5        29.85F HX  90
SOMERVILLE     SUNNY     94  57  28 VRB6      29.83F HX  92
SUSSEX         PTSUNNY   89  67  47 CALM      29.87F HX  92
ANDOVER          N/A     88  67  49 VRB3      29.88F HX  91
TRENTON        SUNNY     93  56  28 N8        29.85S HX  91
MILLVILLE      MOSUNNY   93  64  38 N10       29.85F HX  94
ATLANTIC CITY  MOSUNNY   87  69  54 E12       29.86R HX  91
WRIGHTSTOWN    SUNNY     89  65  44 NE3       29.83S HX  91
TOMS RIVER     MOSUNNY   90  64  43 CALM      29.85F HX  91
BELMAR         SUNNY     88  64  45 E8        29.86S
$$

PAZ047>061-062-071-032000-
EASTERN PENNSYLVANIA

CITY           SKY/WX    TMP DP  RH WIND       PRES   REMARKS
PHILADELPHIA   MOSUNNY   94  61  33 MISG      29.85S HX  94
ALLENTOWN      MOSUNNY   92  67  43 CALM      29.87  HX  95
SCRANTON       MOSUNNY   90  67  46 W8        29.90F HX  93
$$

CTZ002-004>006-009-010-012-RIZ004-006-007-MAZ004-011-015-032000-
SOUTHERN NEW ENGLAND
 IN CT

CITY           SKY/WX    TMP DP  RH WIND       PRES   REMARKS
BRADLEY INTL   PTSUNNY   89  65  44 VRB3      29.83F HX  91
HARTFORD       SUNNY     88  68  51 MISG      29.82F HX  91
DANBURY        SUNNY     88  61  40 VRB3      29.86F
WTRBRY/OXFORD  NOT AVBL
BRIDGEPORT     SUNNY     84  69  60 S8        29.83F
MERIDEN        MOSUNNY   91  66  43 N6        29.83S HX  93
NEW HAVEN      MOSUNNY   83  69  62 S8        29.84S
CHESTER        NOT AVBL
GROTON         SUNNY     80  71  74 SW9       29.83S
WILLIMANTIC    MOSUNNY   90  65  43 NW6       29.83F HX  92

 IN RI

CITY           SKY/WX    TMP DP  RH WIND       PRES   REMARKS
PROVIDENCE     PTSUNNY   88  67  49 S10       29.83S HX  91
BLOCK ISLAND   SUNNY     81  72  74 SW12      29.85S
WESTERLY       SUNNY     83  66  56 S12       29.84S

 IN MA

CITY           SKY/WX    TMP DP  RH WIND       PRES   REMARKS
BOSTON         MOSUNNY   79  66  64 SE9       29.85F
WORCESTER      SUNNY     85  59  41 N6        29.89S
WESTFIELD      MOSUNNY   90  64  42 NW10      29.84F HX  91
PROVINCETOWN     N/A     77  66  69 N6        29.85S
NANTUCKET      MOSUNNY   81  70  69 SW13      29.85S
$$

ANZ330-335-338-340-345-350-353-355-032000-
COASTAL MARINE OBSERVATIONS


STATION/POSITION TIME  SKY/WX   TEMP    WIND        PRES    VSBY  WAVE
                                AIR SEA DIR/SP/G                  HT/PER
                 (UTC)          (F)     (DEG/KT/KT) (MB)    (MI)  (FT/S)
NY HARB ENTRANCE 1750            79 79  260/  4/  4 1010.7          1/14
4S FIRE IS       NOT AVBL
20S FIRE ISLAND  1750            76 78  100/  2/  4 1010.8          2/13
GREAT SOUTH BAY  1800            77 81  190/ 10/ 10   N/A
23SW MTP         1850            76 76  210/  4/  6 1010.4          2/ 7
HUDSON CANYON    NOT AVBL
KINGS POINT      1800            86 75   10/  3/  5 1010.0
EXECUTION ROCKS  1800            83     160/  4/  4   N/A
CENTRAL LI SOUND NOT AVBL
EASTERN LI SOUND 1800            76 71  210/  4/  4   N/A
ROBBINS REEF     1800            85      50/  9/  9 1009.5
$$


>>>>>>>>>>>>>>>>>>>>>>>>>>>> KEY <<<<<<<<<<<<<<<<<<<<<<<<<<<
>                                                          <
>     SKY/WX - SKY CONDITION/PRESENT WEATHER               <
>     TMP    - TEMPERATURE IN FAHRENHEIT                   <
>     DP     - DEWPOINT IN FAHRENHEIT                      <
>     RH     - RELATIVE HUMIDITY IN PERCENT                <
>     WIND   - DIRECTION AND SPEED IN MPH                  <
>     PRES   - MEAN SEA LEVEL PRESSURE IN INCHES OF HG     <
>     WCI    - WIND CHILL INDEX                            <
>     VSB    - VISIBILITY IN MILES                         <
>     HX     - HEAT INDEX                                  <
>     TC     - TEMPERATURE IN CELSIUS                      <
>     VRB    - VARIABLE WIND DIRECTION                     <
>                                                          <
>>>>>>>>>>>>>>>>>>>>>>>>>>>> KEY <<<<<<<<<<<<<<<<<<<<<<<<<<<





USA.gov is the U.S. government's official web portal to all federal, state and local government web resources and services.